Time,TemperatureF,DewpointF,PressureIn,WindDirection,WindDirectionDegrees,WindSpeedMPH,WindSpeedGustMPH,Humidity,HourlyPrecipIn,Conditions,Clouds,dailyrainin,SolarRadiationWatts/m^2,SoftwareType,DateUTC
2013-03-14 00:02:00,10.0,6.0,-100.00,SW,228,2.0,4.0,83,0.00,,,0.00,0.000000,,2013-03-14 05:02:00,
2013-03-14 00:33:00,8.0,5.0,-100.00,SSW,208,1.0,4.0,86,0.00,,,0.00,0.000000,,2013-03-14 05:33:00,
2013-03-14 00:42:00,8.0,5.0,-100.00,SSW,208,1.0,4.0,86,0.00,,,0.00,0.000000,,2013-03-14 05:42:00,
2013-03-14 00:53:00,8.0,5.0,-100.00,SSW,208,1.0,4.0,86,0.00,,,0.00,0.000000,,2013-03-14 05:53:00,
2013-03-14 01:02:00,8.0,5.0,-100.00,SSW,208,1.0,4.0,86,0.00,,,0.00,0.000000,,2013-03-14 06:02:00,
2013-03-14 01:33:00,7.0,4.0,-100.00,SE,134,1.0,2.0,88,0.00,,,0.00,0.000000,,2013-03-14 06:33:00,
2013-03-14 01:42:00,7.0,4.0,-100.00,SE,134,1.0,2.0,88,0.00,,,0.00,0.000000,,2013-03-14 06:42:00,
2013-03-14 01:52:00,7.0,4.0,-100.00,SE,134,1.0,2.0,88,0.00,,,0.00,0.000000,,2013-03-14 06:52:00,
2013-03-14 02:02:00,7.0,4.0,-100.00,SE,134,1.0,2.0,88,0.00,,,0.00,0.000000,,2013-03-14 07:02:00,
2013-03-14 02:32:00,7.0,4.0,-100.00,North,358,1.0,2.0,87,0.00,,,0.00,0.000000,,2013-03-14 07:32:00,
2013-03-14 02:43:00,7.0,4.0,-100.00,North,358,1.0,2.0,87,0.00,,,0.00,0.000000,,2013-03-14 07:43:00,
2013-03-14 02:52:00,7.0,4.0,-100.00,North,358,1.0,2.0,87,0.00,,,0.00,0.000000,,2013-03-14 07:52:00,
2013-03-14 03:02:00,7.0,4.0,-100.00,North,358,1.0,2.0,87,0.00,,,0.00,0.000000,,2013-03-14 08:02:00,
2013-03-14 03:32:00,5.0,2.0,-100.00,ENE,67,1.0,2.0,85,0.00,,,0.00,0.000000,,2013-03-14 08:32:00,
2013-03-14 03:42:00,5.0,2.0,-100.00,ENE,67,1.0,2.0,85,0.00,,,0.00,0.000000,,2013-03-14 08:42:00,
2013-03-14 03:52:00,5.0,2.0,-100.00,ENE,67,1.0,2.0,85,0.00,,,0.00,0.000000,,2013-03-14 08:52:00,
2013-03-14 04:01:00,5.0,2.0,-100.00,ENE,67,1.0,2.0,85,0.00,,,0.00,0.000000,,2013-03-14 09:01:00,
2013-03-14 04:32:00,2.0,-2.0,-100.00,SW,225,2.0,2.0,83,0.00,,,0.00,0.000000,,2013-03-14 09:32:00,
2013-03-14 04:42:00,2.0,-2.0,-100.00,SW,225,2.0,2.0,83,0.00,,,0.00,0.000000,,2013-03-14 09:42:00,
2013-03-14 04:52:00,2.0,-2.0,-100.00,SW,225,2.0,2.0,83,0.00,,,0.00,0.000000,,2013-03-14 09:52:00,
2013-03-14 05:02:00,2.0,-2.0,-100.00,SW,225,2.0,2.0,83,0.00,,,0.00,0.000000,,2013-03-14 10:02:00,
2013-03-14 05:32:00,1.0,-3.0,-100.00,NE,46,2.0,2.0,83,0.00,,,0.00,0.000000,,2013-03-14 10:32:00,
2013-03-14 05:42:00,1.0,-3.0,-100.00,NE,46,2.0,2.0,83,0.00,,,0.00,0.000000,,2013-03-14 10:42:00,
2013-03-14 05:52:00,1.0,-3.0,-100.00,NE,46,2.0,2.0,83,0.00,,,0.00,0.000000,,2013-03-14 10:52:00,
2013-03-14 06:02:00,1.0,-3.0,-100.00,NE,46,2.0,2.0,83,0.00,,,0.00,0.000000,,2013-03-14 11:02:00,
2013-03-14 06:33:00,1.0,-3.0,-100.00,NE,41,0.0,2.0,83,0.00,,,0.00,0.000000,,2013-03-14 11:33:00,
2013-03-14 06:42:00,1.0,-3.0,-100.00,NE,41,0.0,2.0,83,0.00,,,0.00,0.000000,,2013-03-14 11:42:00,
2013-03-14 06:53:00,1.0,-3.0,-100.00,NE,41,0.0,2.0,83,0.00,,,0.00,0.000000,,2013-03-14 11:53:00,
2013-03-14 07:02:00,1.0,-3.0,-100.00,NE,41,0.0,2.0,83,0.00,,,0.00,0.000000,,2013-03-14 12:02:00,
2013-03-14 07:33:00,1.0,-3.0,-100.00,NE,46,1.0,2.0,83,0.00,,,0.00,0.000000,,2013-03-14 12:33:00,
2013-03-14 07:43:00,1.0,-3.0,-100.00,NE,46,1.0,2.0,83,0.00,,,0.00,0.000000,,2013-03-14 12:43:00,
2013-03-14 07:52:00,1.0,-3.0,-100.00,NE,46,1.0,2.0,83,0.00,,,0.00,0.000000,,2013-03-14 12:52:00,
2013-03-14 08:02:00,1.0,-3.0,-100.00,NE,46,1.0,2.0,83,0.00,,,0.00,0.000000,,2013-03-14 13:02:00,
2013-03-14 08:32:00,9.0,5.0,-100.00,East,82,1.0,2.0,84,0.00,,,0.00,37.000000,,2013-03-14 13:32:00,
2013-03-14 08:43:00,9.0,5.0,-100.00,East,82,1.0,2.0,84,0.00,,,0.00,37.000000,,2013-03-14 13:43:00,
2013-03-14 08:52:00,9.0,5.0,-100.00,East,82,1.0,2.0,84,0.00,,,0.00,37.000000,,2013-03-14 13:52:00,
2013-03-14 09:02:00,9.0,5.0,-100.00,East,82,1.0,2.0,84,0.00,,,0.00,37.000000,,2013-03-14 14:02:00,
2013-03-14 09:32:00,20.0,16.0,-100.00,SSW,200,3.0,4.0,85,0.00,,,0.00,120.000000,,2013-03-14 14:32:00,
2013-03-14 09:42:00,20.0,16.0,-100.00,SSW,200,3.0,4.0,85,0.00,,,0.00,120.000000,,2013-03-14 14:42:00,
2013-03-14 09:53:00,20.0,16.0,-100.00,SSW,200,3.0,4.0,85,0.00,,,0.00,120.000000,,2013-03-14 14:53:00,
2013-03-14 10:02:00,20.0,16.0,-100.00,SSW,200,3.0,4.0,85,0.00,,,0.00,120.000000,,2013-03-14 15:02:00,
2013-03-14 10:33:00,26.0,16.0,-100.00,SSW,211,4.0,5.0,66,0.00,,,0.00,195.000000,,2013-03-14 15:33:00,
2013-03-14 10:43:00,26.0,16.0,-100.00,SSW,211,4.0,5.0,66,0.00,,,0.00,195.000000,,2013-03-14 15:43:00,
2013-03-14 10:52:00,26.0,16.0,-100.00,SSW,211,4.0,5.0,66,0.00,,,0.00,195.000000,,2013-03-14 15:52:00,
2013-03-14 11:03:00,26.0,16.0,-100.00,SSW,211,4.0,5.0,66,0.00,,,0.00,195.000000,,2013-03-14 16:03:00,
2013-03-14 11:33:00,29.0,14.0,-100.00,South,170,5.0,8.0,54,0.00,,,0.00,203.000000,,2013-03-14 16:33:00,
2013-03-14 11:42:00,29.0,14.0,-100.00,South,170,5.0,8.0,54,0.00,,,0.00,203.000000,,2013-03-14 16:42:00,
2013-03-14 11:52:00,29.0,14.0,-100.00,South,170,5.0,8.0,54,0.00,,,0.00,203.000000,,2013-03-14 16:52:00,
2013-03-14 12:02:00,29.0,14.0,-100.00,South,170,5.0,8.0,54,0.00,,,0.00,203.000000,,2013-03-14 17:02:00,
2013-03-14 12:33:00,31.0,16.0,-100.00,SSW,193,6.0,9.0,54,0.00,,,0.00,317.000000,,2013-03-14 17:33:00,
2013-03-14 12:42:00,31.0,16.0,-100.00,SSW,193,6.0,9.0,54,0.00,,,0.00,317.000000,,2013-03-14 17:42:00,
2013-03-14 12:52:00,31.0,16.0,-100.00,SSW,193,6.0,9.0,54,0.00,,,0.00,317.000000,,2013-03-14 17:52:00,
2013-03-14 13:03:00,31.0,16.0,-100.00,SSW,193,6.0,9.0,54,0.00,,,0.00,317.000000,,2013-03-14 18:03:00,
2013-03-14 13:33:00,33.0,21.0,-100.00,SSW,208,6.0,10.0,61,0.00,,,0.00,345.000000,,2013-03-14 18:33:00,
2013-03-14 13:43:00,33.0,21.0,-100.00,SSW,208,6.0,10.0,61,0.00,,,0.00,345.000000,,2013-03-14 18:43:00,
2013-03-14 13:52:00,33.0,21.0,-100.00,SSW,208,6.0,10.0,61,0.00,,,0.00,345.000000,,2013-03-14 18:52:00,
2013-03-14 14:03:00,33.0,21.0,-100.00,SSW,208,6.0,10.0,61,0.00,,,0.00,345.000000,,2013-03-14 19:03:00,
2013-03-14 15:32:00,36.0,25.0,-100.00,SW,221,4.0,12.0,63,-99.99,,,0.00,320.000000,,2013-03-14 20:32:00,
2013-03-14 15:42:00,36.0,25.0,-100.00,SW,221,4.0,12.0,63,-99.99,,,0.00,320.000000,,2013-03-14 20:42:00,
2013-03-14 15:52:00,36.0,25.0,-100.00,SW,221,4.0,12.0,63,-99.99,,,0.00,320.000000,,2013-03-14 20:52:00,
2013-03-14 16:02:00,36.0,25.0,-100.00,SW,221,4.0,12.0,63,-99.99,,,0.00,320.000000,,2013-03-14 21:02:00,
2013-03-14 16:33:00,35.0,26.0,-100.00,WSW,256,3.0,7.0,69,0.00,,,0.00,163.000000,,2013-03-14 21:33:00,
2013-03-14 16:43:00,35.0,26.0,-100.00,WSW,256,3.0,7.0,69,0.00,,,0.00,163.000000,,2013-03-14 21:43:00,
2013-03-14 16:53:00,35.0,26.0,-100.00,WSW,256,3.0,7.0,69,0.00,,,0.00,163.000000,,2013-03-14 21:53:00,
2013-03-14 17:03:00,35.0,26.0,-100.00,WSW,256,3.0,7.0,69,0.00,,,0.00,163.000000,,2013-03-14 22:03:00,
2013-03-14 17:33:00,37.0,26.0,-100.00,SSW,196,6.0,10.0,63,0.00,,,0.00,277.000000,,2013-03-14 22:33:00,
2013-03-14 17:42:00,37.0,26.0,-100.00,SSW,196,6.0,10.0,63,0.00,,,0.00,277.000000,,2013-03-14 22:42:00,
2013-03-14 17:52:00,37.0,26.0,-100.00,SSW,196,6.0,10.0,63,0.00,,,0.00,277.000000,,2013-03-14 22:52:00,
2013-03-14 18:02:00,37.0,26.0,-100.00,SSW,196,6.0,10.0,63,0.00,,,0.00,277.000000,,2013-03-14 23:02:00,
2013-03-14 18:33:00,36.0,25.0,-100.00,SW,231,7.0,13.0,65,0.00,,,0.00,211.000000,,2013-03-14 23:33:00,
2013-03-14 18:43:00,36.0,25.0,-100.00,SW,231,7.0,13.0,65,0.00,,,0.00,211.000000,,2013-03-14 23:43:00,
2013-03-14 18:54:00,36.0,25.0,-100.00,SW,231,7.0,13.0,65,0.00,,,0.00,211.000000,,2013-03-14 23:54:00,
2013-03-14 19:02:00,36.0,25.0,-100.00,SW,231,7.0,13.0,65,0.00,,,0.00,211.000000,,2013-03-15 00:02:00,
2013-03-14 19:32:00,33.0,26.0,-100.00,SW,228,4.0,11.0,75,0.00,,,0.00,32.000000,,2013-03-15 00:32:00,
2013-03-14 19:43:00,33.0,26.0,-100.00,SW,228,4.0,11.0,75,0.00,,,0.00,32.000000,,2013-03-15 00:43:00,
2013-03-14 19:52:00,33.0,26.0,-100.00,SW,228,4.0,11.0,75,0.00,,,0.00,32.000000,,2013-03-15 00:52:00,
2013-03-14 20:02:00,33.0,26.0,-100.00,SW,228,4.0,11.0,75,0.00,,,0.00,32.000000,,2013-03-15 01:02:00,
2013-03-14 20:33:00,30.0,26.0,-100.00,SW,215,4.0,6.0,85,0.00,,,0.00,0.000000,,2013-03-15 01:33:00,
2013-03-14 20:43:00,30.0,26.0,-100.00,SW,215,4.0,6.0,85,0.00,,,0.00,0.000000,,2013-03-15 01:43:00,
2013-03-14 20:52:00,30.0,26.0,-100.00,SW,215,4.0,6.0,85,0.00,,,0.00,0.000000,,2013-03-15 01:52:00,
2013-03-14 21:02:00,30.0,26.0,-100.00,SW,215,4.0,6.0,85,0.00,,,0.00,0.000000,,2013-03-15 02:02:00,
2013-03-14 21:32:00,28.0,25.0,-100.00,SW,229,4.0,7.0,89,0.00,,,0.00,0.000000,,2013-03-15 02:32:00,
2013-03-14 21:42:00,28.0,25.0,-100.00,SW,229,4.0,7.0,89,0.00,,,0.00,0.000000,,2013-03-15 02:42:00,
2013-03-14 21:52:00,28.0,25.0,-100.00,SW,229,4.0,7.0,89,0.00,,,0.00,0.000000,,2013-03-15 02:52:00,
2013-03-14 22:02:00,28.0,25.0,-100.00,SW,229,4.0,7.0,89,0.00,,,0.00,0.000000,,2013-03-15 03:02:00,
2013-03-14 22:33:00,27.0,25.0,-100.00,SW,226,4.0,5.0,92,0.00,,,0.00,0.000000,,2013-03-15 03:33:00,
2013-03-14 22:43:00,27.0,25.0,-100.00,SW,226,4.0,5.0,92,0.00,,,0.00,0.000000,,2013-03-15 03:43:00,
2013-03-14 22:53:00,27.0,25.0,-100.00,SW,226,4.0,5.0,92,0.00,,,0.00,0.000000,,2013-03-15 03:53:00,
2013-03-14 23:03:00,27.0,25.0,-100.00,SW,226,4.0,5.0,92,0.00,,,0.00,0.000000,,2013-03-15 04:03:00,
2013-03-14 23:33:00,28.0,27.0,-100.00,SW,226,6.0,8.0,94,0.00,,,0.00,0.000000,,2013-03-15 04:33:00,
2013-03-14 23:43:00,28.0,27.0,-100.00,SW,226,6.0,8.0,94,0.00,,,0.00,0.000000,,2013-03-15 04:43:00,
2013-03-14 23:53:00,28.0,27.0,-100.00,SW,226,6.0,8.0,94,0.00,,,0.00,0.000000,,2013-03-15 04:53:00,